Location: Ravensburg
(47.7866°N, 9.6124°E)
Time: 21:30:00
(UTC+02:00)

ITAMSAT 1 - Pass Details

Date: 14 March 2026
Orbit: 782 x 793 km, 98.7° (Epoch: 14 April)

Event Time Altitude Azimuth Distance (km) Brightness Sun altitude
Exits shadow 20:54:29 37° 42° (NE) 1,214 8.4 -25.1°
Drops below altitude 10° 20:58:25 10° 359° (N) 2,356 10.4 -25.7°
Sets 21:00:52 0° 352° (N) 3,291 11.4 -26.0°
